Regional Weather Roundup
Issued by NWS Green Bay, WI

Home | Current Version | Previous Version | Text Only | Print | Product List | Glossary On
Versions: 1 2 3 4 5 6 7 8 9 10 11 12 13 14 15 16 17 18 19 20 21 22 23 24 25 26 27 28 29 30 31 32 33 34 35 36 37 38 39 40 41 42 43 44 45 46 47 48 49 50
000
ASUS43 KGRB 231911
RWRGRB

NORTH-CENTRAL AND NORTHEAST WISCONSIN REGIONAL WEATHER ROUNDUP
NATIONAL WEATHER SERVICE GREEN BAY WI
200 PM CDT MON APR 23 2018

WIZ005-009-010>012-018-019-232000-
NORTH CENTRAL WISCONSIN

CITY           SKY/WX    TMP DP  RH WIND       PRES   REMARKS
IRONWOOD       FAIR      61  31  32 W7        30.17F
MANITOWISH WTR FAIR      58  28  31 S5        30.18F
ARBOR VITAE    FAIR      59  25  26 W3        30.19F
EAGLE RIVER    FAIR      59  24  26 W3        30.19F
LAND O LAKES   FAIR      61  24  23 CALM      30.20F
RHINELANDER    FAIR      61  27  27 CALM      30.20F
PHILLIPS       FAIR      60  30  32 S3        30.19F
ANTIGO         FAIR      58  27  31 N3        30.21S
TOMAHAWK       FAIR      60  25  26 CALM      30.20F
MERRILL        FAIR      61  25  25 CALM      30.21F
$$

WIZ013-073-232000-
NORTHEAST WISCONSIN

CITY           SKY/WX    TMP DP  RH WIND       PRES   REMARKS
IRON MOUNTAIN  FAIR      65  19  17 CALM      30.17F
MARINETTE      FAIR      60  30  32 SE8       30.22F
OCONTO         FAIR      59  25  27 SE7       30.21F
$$

WIZ017-030-035>037-045-232000-
CENTRAL WISCONSIN

CITY           SKY/WX    TMP DP  RH WIND       PRES   REMARKS
MEDFORD        FAIR      57  29  34 CALM      30.20F
WAUSAU         FAIR      62  23  22 VRB3      30.18F
MOSINEE        MOSUNNY   61  25  25 VRB5      30.20F
MARSHFIELD     FAIR      60  30  32 SE6       30.19F
WISC RAPIDS    FAIR      64  25  22 CALM      30.20F
STEVENS POINT  FAIR      59  25  27 S5        30.21F
WAUPACA        FAIR      64  23  21 CALM      30.21F
SHAWANO        FAIR      61  26  26 NE5       30.21F
CLINTONVILLE   FAIR      60  21  23 CALM      30.22F
WAUTOMA        NOT AVBL
$$

WIZ038-039-048-051-232000-
FOX VALLEY

CITY           SKY/WX    TMP DP  RH WIND       PRES   REMARKS
NWS GREEN BAY  FAIR      62  30  29 VRB6      30.21F
APPLETON       SUNNY     61  25  25 NE6       30.19F
OSHKOSH        FAIR      59  33  37 NE9       30.20F
FOND DU LAC    FAIR      60  32  34 NE12      30.19F
$$

WIZ022-050-052-232000-
EAST CENTRAL WISCONSIN

CITY           SKY/WX    TMP DP  RH WIND       PRES   REMARKS
EPHRAIM        FAIR      60  24  25 W7        30.21F
WASHINGTON ISL FAIR      57  24  28 SW7       30.22F
STURGEON BAY   NOT AVBL
MANITOWOC      FAIR      61  27  27 E9        30.21F
SHEBOYGAN      FAIR      59  28  30 NE12      30.19F
$$

LMZ563-521-522-541>543-232000-
LAKESHORE

STATION/POSITION TIME  TEMP    WIND        PRES    VSBY  WAVE
                       AIR SEA DIR/SP/G                  HT/PER
                 (UTC) (F)     (DEG/KT/KT) (MB)    (MI)  (FT/S)
SHEBOYGAN LKSHOR 1900   42     360/ 12/ 12 1022.9F
KEWAUNEE LKSHORE 1842   49      40/  5/  5 1022.6F
NORTHPORT PIER   1840   38                 1023.4F
SISTER BAY LKSHO 1857   57      10/  6/  6   N/A
MENOMINEE LKSHOR 1842   40     150/  7/  7 1022.8F
$$




USA.gov is the U.S. government's official web portal to all federal, state and local government web resources and services.